Location: Cisewo
(53.3833°N, 14.9000°E)
Time: 10:10:32
(UTC+00:00)

USA 215 - Pass Details

Date: 18 April 2021
Orbit: 1101 x 1107 km, 123.0° (Epoch: 07 May)

Event Time Altitude Azimuth Distance (km) Brightness Sun altitude
Exits shadow 18:58:18 - 117° (ESE) 3,035 4.9 -7.8°
Reaches altitude 10° 18:58:30 10° 117° (ESE) 2,956 4.8 -7.8°
Maximum altitude 19:05:03 84° 205° (SSW) 1,114 3.3 -8.6°
Drops below altitude 10° 19:11:38 10° 295° (WNW) 2,966 7.1 -9.4°
Sets 19:14:07 0° 297° (WNW) 3,926 8.3 -9.7°
